Flag for Switzerland Weather past 2 weeks in Emmen, Lucerne, Switzerland

Now
48 °F

Cool.


Feels Like: 48 °F
Forecast: 54 / 74 °F
Wind: 2 mph from West

Location: Giswil

Current Time: Jul 31, 2015 at 5:14:11 AM

Latest Report: Jul 31, 2015 at 4:00 AM


Visibility: N/A

Pressure: 30.09 "Hg

Humidity: 98%

Dew point: 47 °F

Location of EmmenLocation

Historic Weather in Emmen — Graph

°F

Emmen temperature yesterday

Maximum temperature yesterday: 67 °F (at 4:00 PM)
Minimum temperature yesterday: 55 °F (at 7:00 AM)
Average temperature yesterday: 60 °F

Past Weeks' High & Low Weather Summary

 TemperatureHumidityPressure
High92 °F (Jul 22, 4:00 PM)100% (Jul 23, 1:00 AM)30.14 "Hg (Jul 23, 1:00 AM)
Low49 °F (Jul 31, 3:00 AM)36% (Jul 16, 6:00 PM)29.70 "Hg (Jul 24, 4:00 PM)
Average69 °F74%29.94 "Hg
* Reported Jul 16 3:00 AM — Jul 31 3:00 AM, Emmen, Weather by CustomWeather, © 2015

Note: Actual official high and low records may vary slightly from our data, if they occured in-between our weather recording intervals... More about our weather records

Advertising

Emmen weather history for previous 24 hours

 ConditionsComfort  
Time TempWeatherWind HumidityBarometerVisibility
3:00 AM
Fri, Jul 31
49 °FCool.2 mph97%30.09 "HgN/A
2:00 AM50 °FCool.2 mph96%30.09 "HgN/A
1:00 AM52 °FCool.2 mph95%30.08 "HgN/A
12:00 AM54 °FCool.2 mph93%30.08 "HgN/A
10:00 PM
Thu, Jul 30
60 °FCool.2 mph86%30.03 "HgN/A
9:00 PM63 °FMild.1 mph76%30.01 "HgN/A
8:00 PM65 °FMild.No wind75%29.99 "HgN/A
7:00 PM65 °FMild.No wind72%29.99 "HgN/A
6:00 PM65 °FMild.No wind69%29.99 "HgN/A
5:00 PM66 °FMild.1 mph60%29.98 "HgN/A
4:00 PM67 °FMild.1 mph53%29.98 "HgN/A
3:00 PM66 °FMild.2 mph55%29.98 "HgN/A
2:00 PM65 °FMild.3 mph53%30.00 "HgN/A
1:00 PM63 °FMild.2 mph64%30.01 "HgN/A
12:00 PM62 °FCool.2 mph61%30.03 "HgN/A
11:00 AM60 °FCool.1 mph71%30.03 "HgN/A
10:00 AM58 °FCool.1 mph82%30.04 "HgN/A
9:00 AM57 °FCool.No wind86%30.03 "HgN/A
8:00 AM56 °FCool.1 mph91%30.03 "HgN/A
7:00 AM55 °FCool.1 mph95%30.03 "HgN/A
6:00 AM55 °FCool.1 mph94%30.02 "HgN/A
Weather by CustomWeather, © 2015

See weather overviewHow to use our weather pages